Location: Riverton
(43.0250°N, 108.3790°W)
Time: 22:42:59
(UTC-07:00)

Amateur Radio Satellites - All Passes

Search period start: 21 December 2014 22:12
Search period end: 22 December 2014 22:12
Location: Riverton, 43.0250°N, 108.3790°W

Satellite Date Start Highest point End Downlink Frequencies (MHz)
Time Altitude Azimuth
POLYITAN 1 21 Dec 22:18:45 22:21:50 19° 93° (E) 22:24:55 437.675
NANOSAT C BR1 21 Dec 22:19:46 22:22:50 19° 93° (E) 22:25:53 145.865
DX 1 21 Dec 22:23:01 22:26:01 18° 267° (W) 22:29:01 434.975-435.025
AISAT 21 Dec 22:29:53 22:34:05 43° 261° (W) 22:38:19 437.250
HUMSAT D 21 Dec 22:30:10 22:34:04 40° 262° (W) 22:38:02 437.325/437.525
CUBEBUG 1 21 Dec 22:30:37 22:34:57 71° 74° (ENE) 22:39:18 437.445
QB50P1 21 Dec 22:33:58 22:37:37 27° 96° (E) 22:41:15 145.935-145.965
BEESAT 2 21 Dec 22:34:01 22:37:55 38° 243° (WSW) 22:41:45 435.950
DANDE 21 Dec 22:34:21 22:39:13 18° 278° (W) 22:44:22 436.750
SO-50 21 Dec 22:39:39 22:42:57 19° 322° (NW) 22:46:20 436.795
ANTELSAT 21 Dec 22:42:24 22:47:03 55° 100° (E) 22:51:41 437.575/2403.000
YUBILEINY 21 Dec 23:01:49 23:09:38 39° 86° (E) 23:17:26 435.215
POPSAT HIP 1 21 Dec 23:02:27 23:06:40 56° 100° (E) 23:10:52 437.405
PCSat 21 Dec 23:10:45 23:16:05 58° 245° (WSW) 23:21:22 145.827
SWISSCUBE 21 Dec 23:16:27 23:18:04 12° 58° (ENE) 23:19:42 437.505
TIGRISAT 21 Dec 23:17:02 23:21:44 69° 286° (WNW) 23:26:25 435.000
ITUPSAT 1 21 Dec 23:17:58 23:19:10 11° 58° (ENE) 23:20:22 437.325
BUGSAT 1 21 Dec 23:22:01 23:26:05 74° 102° (ESE) 23:30:10 437.445
VELOX 1 21 Dec 23:25:00 23:27:00 13° 270° (W) 23:29:00 145.980
TISAT 1 21 Dec 23:25:14 23:29:24 69° 75° (ENE) 23:33:36 437.305
DUCHIFAT 1 21 Dec 23:29:44 23:33:59 74° 285° (WNW) 23:38:14 145.980
ESTCUBE 1 21 Dec 23:30:27 23:34:17 27° 265° (W) 23:38:09 437.505/2401.250
SPROUT 21 Dec 23:33:04 23:37:20 78° 75° (ENE) 23:41:38 437.525
BEESAT 21 Dec 23:39:21 23:42:32 18° 62° (ENE) 23:45:43 436.000
RS-15 21 Dec 23:40:10 23:45:25 14° 264° (W) 23:50:47 29.354- 29.394
QB50P2 21 Dec 23:44:27 23:48:35 49° 288° (WNW) 23:52:43 145.880/145.840
AUBIESAT-1 21 Dec 23:45:56 23:48:29 14° 55° (NE) 23:51:02 437.475
AIST 2 21 Dec 23:46:51 23:49:29 16° 250° (WSW) 23:52:06 435.215
UNISAT 6 21 Dec 23:47:19 23:51:35 34° 291° (WNW) 23:55:50 437.425
O/OREOS (USA 219) 21 Dec 23:47:46 23:51:23 25° 103° (ESE) 23:55:01 437.305
POLYITAN 1 21 Dec 23:53:55 23:57:55 39° 289° (WNW) 00:01:55 437.675
NANOSAT C BR1 21 Dec 23:54:53 23:58:50 39° 289° (WNW) 00:02:48 145.865
QB50P1 22 Dec 00:09:50 00:13:27 28° 292° (WNW) 00:17:04 145.935-145.965
CUBEBUG 1 22 Dec 00:10:40 00:11:48 11° 271° (W) 00:12:56 437.445
M-CUBED/EXP-1 PRIME 22 Dec 00:10:55 00:14:53 26° 60° (ENE) 00:18:53 437.505
ANTELSAT 22 Dec 00:20:16 00:23:25 18° 297° (WNW) 00:26:34 437.575/2403.000
POPSAT HIP 1 22 Dec 00:39:44 00:42:07 15° 297° (WNW) 00:44:30 437.405
SWISSCUBE 22 Dec 00:50:23 00:55:11 90° 75° (ENE) 01:00:01 437.505
Oscar 19 22 Dec 00:51:20 00:55:20 22° 93° (E) 00:59:19 437.125/150
ITUPSAT 1 22 Dec 00:51:27 00:56:16 84° 75° (ENE) 01:01:06 437.325
YUBILEINY 22 Dec 00:57:51 01:06:13 49° 286° (WNW) 01:14:36 435.215
BUGSAT 1 22 Dec 01:00:10 01:01:00 11° 299° (WNW) 01:01:50 437.445
TISAT 1 22 Dec 01:05:01 01:05:42 10° 271° (W) 01:06:23 437.305
ITAMSAT 1 22 Dec 01:12:00 01:13:56 12° 88° (E) 01:15:52 435.822/435.867
BEESAT 22 Dec 01:15:14 01:19:56 56° 259° (W) 01:24:40 436.000
AUBIESAT-1 22 Dec 01:17:53 01:22:44 86° 251° (WSW) 01:27:40 437.475
O/OREOS (USA 219) 22 Dec 01:26:35 01:30:38 33° 301° (WNW) 01:34:42 437.305
M-CUBED/EXP-1 PRIME 22 Dec 01:44:59 01:49:36 44° 257° (WSW) 01:54:19 437.505
STARS 22 Dec 01:47:58 01:52:09 45° 71° (ENE) 01:56:21 437.465
KKS-1 22 Dec 01:54:41 01:59:06 81° 75° (ENE) 02:03:34 437.445
VERMONT LUNAR 22 Dec 02:03:50 02:06:10 17° 152° (SSE) 02:08:29 437.305
PHONESAT 2.4 22 Dec 02:25:05 02:27:25 16° 151° (SSE) 02:29:44 2401.200-2431.200
AIST 1 22 Dec 02:27:30 02:30:20 17° 70° (ENE) 02:33:10
Oscar 19 22 Dec 02:29:55 02:34:54 48° 290° (WNW) 02:39:52 437.125/150
ITUPSAT 1 22 Dec 02:33:43 02:34:46 11° 272° (W) 02:35:49 437.325
AO-7 22 Dec 02:47:48 02:51:55 14° 87° (E) 02:56:00 29.400- 29.500
ITAMSAT 1 22 Dec 02:48:52 02:54:04 84° 285° (WNW) 02:59:15 435.822/435.867
Gurwin Techsat 1B 22 Dec 02:52:55 02:58:14 68° 102° (ESE) 03:03:30 435.225
AUBIESAT-1 22 Dec 02:57:29 02:58:18 10° 268° (W) 02:59:07 437.475
MOZHAYETS 4 22 Dec 03:16:15 03:19:41 21° 65° (ENE) 03:23:07
HORYU 2 22 Dec 03:16:47 03:21:08 45° 99° (E) 03:25:27 437.375
STARS 22 Dec 03:25:59 03:28:52 17° 268° (W) 03:31:46 437.465
VERMONT LUNAR 22 Dec 03:40:37 03:43:59 44° 168° (SSE) 03:47:23 437.305
SO-50 22 Dec 03:48:27 03:51:36 17° 36° (NE) 03:54:45 436.795
PHONESAT 2.4 22 Dec 04:02:07 04:05:35 44° 167° (SSE) 04:09:04 2401.200-2431.200
AIST 1 22 Dec 04:04:11 04:08:13 41° 268° (W) 04:12:12
ITAMSAT 1 22 Dec 04:30:48 04:32:44 12° 303° (WNW) 04:34:40 435.822/435.867
Gurwin Techsat 1B 22 Dec 04:34:13 04:37:38 18° 300° (WNW) 04:41:03 435.225
AO-7 22 Dec 04:37:38 04:46:03 75° 106° (ESE) 04:54:23 29.400- 29.500
CUBESAT XI-V 22 Dec 04:45:13 04:47:31 14° 61° (ENE) 04:49:49 437.345
MOZHAYETS 4 22 Dec 04:52:09 04:56:36 44° 262° (W) 05:01:04
HORYU 2 22 Dec 04:54:15 04:57:28 20° 296° (WNW) 05:00:41 437.375
GONETS M04 22 Dec 04:56:27 05:04:42 46° 88° (E) 05:12:57
PRISM 22 Dec 05:00:23 05:04:15 36° 70° (ENE) 05:08:08 437.425
JAS-2 22 Dec 05:07:32 05:13:02 54° 99° (E) 05:18:07 435.910
VERMONT LUNAR 22 Dec 05:18:38 05:22:06 55° 185° (S) 05:25:34 437.305
SO-50 22 Dec 05:27:58 05:32:53 84° 56° (NE) 05:37:48 436.795
STRAND 1 22 Dec 05:32:44 05:37:23 37° 68° (ENE) 05:42:03 437.568
PHONESAT 2.4 22 Dec 05:40:30 05:44:04 57° 184° (S) 05:47:38 2401.200-2431.200
Cubesat XI-IV 22 Dec 05:57:11 06:01:57 33° 96° (E) 06:06:42 437.490
CUBESAT XI-V 22 Dec 06:19:43 06:24:22 72° 258° (WSW) 06:29:02 437.345
CUTE-I 22 Dec 06:29:37 06:34:55 64° 102° (ESE) 06:40:11 437.470
AO-7 22 Dec 06:31:21 06:38:05 28° 306° (NW) 06:44:49 29.400- 29.500
PRISM 22 Dec 06:36:43 06:39:53 20° 266° (W) 06:43:03 437.425
GONETS M04 22 Dec 06:53:21 07:01:34 42° 288° (WNW) 07:09:50
JAS-2 22 Dec 06:53:34 06:57:40 21° 300° (WNW) 07:01:32 435.910
VERMONT LUNAR 22 Dec 06:57:03 07:00:06 28° 201° (SSW) 07:03:09 437.305
SO-50 22 Dec 07:10:36 07:12:46 13° 253° (WSW) 07:14:55 436.795
STRAND 1 22 Dec 07:12:16 07:16:37 28° 265° (W) 07:20:59 437.568
PHONESAT 2.4 22 Dec 07:19:15 07:22:27 30° 201° (SSW) 07:25:39 2401.200-2431.200
Cubesat XI-IV 22 Dec 07:37:16 07:42:00 34° 294° (WNW) 07:46:44 437.490
SEEDS 22 Dec 08:05:45 08:07:20 12° 89° (E) 08:08:54 437.485
DOVE 4 22 Dec 08:08:06 08:08:42 10° 88° (E) 08:09:19 437.250
HO-68 22 Dec 08:08:33 08:14:17 25° 93° (E) 08:19:57 435.675
CUTE 1.7 + AOD 2 22 Dec 08:10:40 08:13:21 16° 91° (E) 08:16:00 437.475
CUTE-I 22 Dec 08:10:52 08:14:28 19° 299° (WNW) 08:18:05 437.470
DANDE 22 Dec 08:25:54 08:26:58 11° 77° (ENE) 08:28:05 436.750
MaSat-1 22 Dec 08:42:51 08:45:05 58° 298° (WNW) 08:47:16 437.345
TIGRISAT 22 Dec 08:42:58 08:45:03 13° 61° (ENE) 08:47:09 435.000
Oscar 11 22 Dec 08:53:27 08:55:59 15° 91° (E) 08:58:30 145.826/435.025
AAUSAT CUBESAT 2 22 Dec 08:54:44 08:58:30 30° 96° (E) 09:02:13 437.432
UKube-1 22 Dec 09:03:35 09:05:41 13° 91° (E) 09:07:48 .
CUSAT 1 22 Dec 09:04:46 09:08:21 38° 90° (E) 09:13:04 437.405
QB50P2 22 Dec 09:04:52 09:07:05 14° 62° (ENE) 09:09:19 145.880/145.840
BRITE-PL 22 Dec 09:08:12 09:12:58 77° 102° (ESE) 09:18:07 437.365/2234.400
YUBILEINY 22 Dec 09:10:53 09:16:53 20° 61° (ENE) 09:22:51 435.215
UNISAT 6 22 Dec 09:11:18 09:14:55 25° 66° (ENE) 09:18:37 437.425
POLYITAN 1 22 Dec 09:13:45 09:16:31 17° 64° (ENE) 09:19:18 437.675
NANOSAT C BR1 22 Dec 09:14:17 09:17:03 17° 64° (ENE) 09:19:49 145.865
CANX-2 22 Dec 09:14:39 09:19:00 87° 102° (ESE) 09:23:18 2200.000
CUBEBUG 2 22 Dec 09:25:15 09:29:00 24° 94° (E) 09:32:48 437.445
GOMX 1 22 Dec 09:25:25 09:30:14 82° 103° (ESE) 09:35:23 467.674
ZACube-1 22 Dec 09:28:12 09:31:19 18° 92° (E) 09:34:27 437.345
QB50P1 22 Dec 09:28:19 09:31:41 24° 67° (ENE) 09:35:05 145.935-145.965
COMPASS 1 22 Dec 09:31:07 09:35:24 88° 103° (ESE) 09:39:39 437.405
DELFI C3 22 Dec 09:36:28 09:40:16 35° 97° (E) 09:44:02 145.870
VELOX 1 22 Dec 09:38:12 09:39:21 11° 89° (E) 09:40:30 145.980
SEEDS 22 Dec 09:39:19 09:43:35 64° 286° (WNW) 09:47:48 437.485
DOVE 4 22 Dec 09:42:10 09:46:59 89° 99° (E) 09:52:06 437.250
RS-15 22 Dec 09:42:11 09:48:27 17° 98° (E) 09:54:41 29.354- 29.394
ANTELSAT 22 Dec 09:42:37 09:46:53 53° 72° (ENE) 09:51:17 437.575/2403.000
CUTE 1.7 + AOD 2 22 Dec 09:45:22 09:49:32 47° 288° (WNW) 09:53:39 437.475
FUNcube-1 22 Dec 09:53:36 09:57:42 32° 96° (E) 10:01:48 145.935
CINEMA 3 22 Dec 09:53:43 09:58:30 73° 102° (ESE) 10:03:26 145.822/145.860
HO-68 22 Dec 09:55:24 10:02:28 64° 291° (WNW) 10:09:28 435.675
O/OREOS (USA 219) 22 Dec 09:55:47 10:00:15 57° 64° (ENE) 10:04:43 437.305
POPSAT HIP 1 22 Dec 09:56:29 10:00:30 47° 72° (ENE) 10:04:34 437.405
UWE-3 22 Dec 09:58:59 10:03:24 44° 98° (E) 10:07:52 435.000/436.395/437.385
DANDE 22 Dec 10:05:39 10:09:16 55° 285° (WNW) 10:14:12 436.750
DX 1 22 Dec 10:08:53 10:13:14 71° 102° (ESE) 10:17:34 434.975-435.025
BUGSAT 1 22 Dec 10:13:14 10:17:14 58° 73° (ENE) 10:21:13 437.445
HUMSAT D 22 Dec 10:13:48 10:17:39 30° 96° (E) 10:21:29 437.325/437.525
TIGRISAT 22 Dec 10:16:51 10:21:11 69° 258° (WSW) 10:25:41 435.000
AISAT 22 Dec 10:20:08 10:24:08 32° 97° (E) 10:28:07 437.250
CUBEBUG 1 22 Dec 10:20:55 10:22:37 12° 90° (E) 10:24:18 437.445
DUCHIFAT 1 22 Dec 10:23:18 10:27:30 87° 255° (WSW) 10:31:43 145.980
Oscar 11 22 Dec 10:28:12 10:32:27 51° 287° (WNW) 10:36:40 145.826/435.025
AAUSAT CUBESAT 2 22 Dec 10:30:35 10:34:02 25° 293° (WNW) 10:37:28 437.432
UKube-1 22 Dec 10:37:57 10:42:13 58° 287° (WNW) 10:46:27 .
QB50P2 22 Dec 10:38:23 10:42:32 57° 259° (W) 10:46:43 145.880/145.840
UNISAT 6 22 Dec 10:47:39 10:51:34 32° 264° (W) 10:55:37 437.425
POLYITAN 1 22 Dec 10:48:06 10:52:07 44° 261° (W) 10:56:11 437.675
NANOSAT C BR1 22 Dec 10:48:34 10:52:35 44° 261° (W) 10:56:38 145.865
BRITE-PL 22 Dec 10:48:37 10:50:59 14° 297° (WNW) 10:53:25 437.365/2234.400
CUSAT 1 22 Dec 10:48:51 10:51:53 19° 299° (WNW) 10:55:33 437.405
CANX-2 22 Dec 10:53:55 10:54:14 10° 300° (WNW) 10:54:32 2200.000
CUBEBUG 2 22 Dec 11:01:28 11:05:46 38° 290° (WNW) 11:10:09 437.445
ZACube-1 22 Dec 11:03:32 11:07:54 47° 288° (WNW) 11:12:19 437.345
QB50P1 22 Dec 11:03:43 11:07:26 31° 263° (W) 11:11:12 145.935-145.965
GOMX 1 22 Dec 11:05:36 11:07:48 13° 298° (WNW) 11:10:03 467.674
YUBILEINY 22 Dec 11:06:16 11:15:01 89° 83° (E) 11:23:44 435.215
50 SAT 22 Dec 11:11:39 11:15:49 77° 284° (WNW) 11:19:58 437.505
VELOX 1 22 Dec 11:12:00 11:16:26 73° 286° (WNW) 11:20:50 145.980
DELFI C3 22 Dec 11:12:16 11:15:19 20° 294° (WNW) 11:18:20 145.870
TISAT 1 22 Dec 11:12:29 11:12:59 10° 89° (E) 11:13:30 437.305
SPROUT 22 Dec 11:20:53 11:22:50 13° 90° (E) 11:24:47 437.525
ANTELSAT 22 Dec 11:21:28 11:24:02 15° 270° (W) 11:26:39 437.575/2403.000
ESTCUBE 1 22 Dec 11:21:36 11:26:03 59° 101° (E) 11:30:28 437.505/2401.250
DOVE 4 22 Dec 11:22:19 11:24:08 12° 299° (WNW) 11:25:58 437.250
FUNcube-1 22 Dec 11:30:07 11:33:55 27° 292° (WNW) 11:37:45 145.935
CINEMA 3 22 Dec 11:32:36 11:35:10 15° 298° (WNW) 11:37:46 145.822/145.860
POPSAT HIP 1 22 Dec 11:34:11 11:36:40 15° 268° (W) 11:39:11 437.405
UWE-3 22 Dec 11:36:13 11:39:39 21° 295° (WNW) 11:43:07 435.000/436.395/437.385
O/OREOS (USA 219) 22 Dec 11:36:41 11:39:09 15° 261° (W) 11:41:37 437.305
HO-68 22 Dec 11:45:33 11:48:49 14° 311° (NW) 11:52:04 435.675
DX 1 22 Dec 11:47:04 11:48:54 13° 300° (WNW) 11:50:45 434.975-435.025
RS-15 22 Dec 11:47:54 11:58:47 77° 119° (ESE) 12:09:44 29.354- 29.394
HUMSAT D 22 Dec 11:49:44 11:53:20 26° 292° (WNW) 11:56:56 437.325/437.525
BEESAT 3 22 Dec 11:50:09 11:52:12 14° 109° (ESE) 11:54:17 437.485
BUGSAT 1 22 Dec 11:51:36 11:53:05 12° 270° (W) 11:54:34 437.445
CUBEBUG 1 22 Dec 11:55:06 11:59:24 64° 286° (WNW) 12:03:41 437.445
AISAT 22 Dec 11:56:59 12:00:37 25° 293° (WNW) 12:04:15 437.250
Oscar 19 22 Dec 12:08:55 12:13:33 35° 67° (ENE) 12:18:14 437.125/150
PCSat 22 Dec 12:12:33 12:15:38 16° 104° (ESE) 12:18:43 145.827
BEESAT 2 22 Dec 12:30:01 12:33:40 32° 115° (ESE) 12:37:23 435.950
ITAMSAT 1 22 Dec 12:30:03 12:33:58 22° 63° (ENE) 12:37:53 435.822/435.867
Gurwin Techsat 1B 22 Dec 12:37:40 12:40:58 17° 60° (ENE) 12:44:15 435.225
TISAT 1 22 Dec 12:45:04 12:49:17 71° 285° (WNW) 12:53:30 437.305
SWISSCUBE 22 Dec 12:50:48 12:54:27 22° 93° (E) 12:58:04 437.505
ITUPSAT 1 22 Dec 12:52:14 12:55:45 20° 93° (E) 12:59:14 437.325
SPROUT 22 Dec 12:55:03 12:59:17 59° 286° (WNW) 13:03:31 437.525
ESTCUBE 1 22 Dec 12:59:50 13:02:26 15° 298° (WNW) 13:05:03 437.505/2401.250
YUBILEINY 22 Dec 13:05:02 13:10:33 19° 283° (WNW) 13:16:05 435.215
BEESAT 22 Dec 13:14:52 13:19:13 34° 97° (E) 13:23:32 436.000
ISS 22 Dec 13:20:04 13:23:22 75° 145° (SE) 13:26:40 145.825
BEESAT 3 22 Dec 13:25:48 13:29:52 61° 306° (NW) 13:34:00 437.485
M-CUBED/EXP-1 PRIME 22 Dec 13:29:12 13:31:21 14° 94° (E) 13:33:24 437.505
AIST 2 22 Dec 13:44:20 13:48:35 88° 123° (ESE) 13:52:54 435.215
KKS-1 22 Dec 13:46:31 13:49:04 15° 91° (E) 13:51:36 437.445
AO-7 22 Dec 13:47:15 13:53:45 26° 53° (NE) 14:00:16 29.400- 29.500
Oscar 19 22 Dec 13:48:26 13:52:54 30° 265° (W) 13:57:26 437.125/150
PCSat 22 Dec 13:52:57 13:58:21 76° 301° (WNW) 14:03:49 145.827
RS-15 22 Dec 14:02:14 14:12:11 39° 325° (NW) 14:22:20 29.354- 29.394
ITAMSAT 1 22 Dec 14:08:05 14:13:06 50° 260° (W) 14:18:09 435.822/435.867
BEESAT 2 22 Dec 14:08:18 14:11:55 29° 313° (NW) 14:15:36 435.950
Gurwin Techsat 1B 22 Dec 14:15:02 14:20:19 72° 258° (WSW) 14:25:39 435.225
HORYU 2 22 Dec 14:16:10 14:20:27 47° 71° (ENE) 14:24:46 437.375
SWISSCUBE 22 Dec 14:28:00 14:32:29 42° 290° (WNW) 14:36:56 437.505
ITUPSAT 1 22 Dec 14:29:18 14:33:51 45° 290° (WNW) 14:38:21 437.325
AUBIESAT-1 22 Dec 14:35:14 14:39:32 68° 106° (ESE) 14:43:24 437.475
BEESAT 22 Dec 14:52:56 14:56:56 27° 294° (WNW) 15:00:54 436.000
ISS 22 Dec 14:57:24 15:00:13 25° 343° (NNW) 15:03:02 145.825
M-CUBED/EXP-1 PRIME 22 Dec 15:02:33 15:06:49 54° 293° (WNW) 15:10:41 437.505
GONETS M04 22 Dec 15:05:49 15:12:35 24° 63° (ENE) 15:19:15
BEESAT 3 22 Dec 15:07:54 15:08:55 11° 326° (NNW) 15:09:56 437.485
STARS 22 Dec 15:13:12 15:17:40 83° 103° (ESE) 15:22:07 437.465
JAS-2 22 Dec 15:19:23 15:25:49 33° 65° (ENE) 15:31:44 435.910
KKS-1 22 Dec 15:21:39 15:26:02 55° 288° (WNW) 15:30:24 437.445
AIST 2 22 Dec 15:25:20 15:27:49 15° 322° (NW) 15:30:20 435.215
AO-7 22 Dec 15:37:21 15:45:40 80° 253° (WSW) 15:54:06 29.400- 29.500
PCSat 22 Dec 15:39:28 15:42:43 16° 322° (NW) 15:45:59 145.827
HORYU 2 22 Dec 15:54:24 15:57:22 17° 268° (W) 16:00:22 437.375
AUBIESAT-1 22 Dec 16:11:48 16:13:50 13° 306° (NW) 16:15:47 437.475
CUTE-I 22 Dec 16:15:12 16:18:27 17° 59° (ENE) 16:21:41 437.470
RS-15 22 Dec 16:20:32 16:28:51 23° 359° (N) 16:37:21 29.354- 29.394
AIST 1 22 Dec 16:34:12 16:38:34 75° 279° (W) 16:42:56
ISS 22 Dec 16:35:13 16:37:35 18° 3° (N) 16:39:57 145.825
MOZHAYETS 4 22 Dec 16:46:28 16:50:50 40° 98° (E) 16:55:09
STARS 22 Dec 16:52:07 16:53:29 11° 300° (WNW) 16:54:51 437.465
GONETS M04 22 Dec 17:01:39 17:10:26 79° 265° (W) 17:19:05
JAS-2 22 Dec 17:03:12 17:10:36 54° 260° (W) 17:17:21 435.910
Cubesat XI-IV 22 Dec 17:20:04 17:25:17 60° 72° (ENE) 17:30:31 437.490
AO-7 22 Dec 17:35:02 17:39:42 16° 272° (W) 17:44:24 29.400- 29.500
STRAND 1 22 Dec 17:44:58 17:46:06 11° 88° (E) 17:47:14 437.568
CUTE-I 22 Dec 17:52:36 17:57:54 74° 257° (WSW) 18:03:14 437.470
CUSAT 1 22 Dec 18:01:01 18:03:33 12° 56° (NE) 18:06:10 437.405
MaSat-1 22 Dec 18:11:31 18:13:40 28° 247° (WSW) 18:15:55 437.345
ISS 22 Dec 18:11:46 18:14:51 35° 23° (NNE) 18:17:54 145.825
CUBESAT XI-V 22 Dec 18:16:10 18:20:02 26° 95° (E) 18:23:53 437.345
PRISM 22 Dec 18:17:44 18:21:49 52° 100° (E) 18:25:49 437.425
MOZHAYETS 4 22 Dec 18:24:15 18:27:48 22° 295° (WNW) 18:31:19
RS-15 22 Dec 18:35:30 18:45:38 37° 34° (NNE) 18:56:06 29.354- 29.394
HO-68 22 Dec 18:39:04 18:44:24 23° 56° (NE) 18:49:43 435.675
SEEDS 22 Dec 19:00:29 19:01:23 11° 60° (ENE) 19:02:18 437.485
GONETS M04 22 Dec 19:01:11 19:05:41 15° 286° (WNW) 19:10:11
DANDE 22 Dec 19:01:13 19:07:38 27° 67° (ENE) 19:14:37 436.750
Cubesat XI-IV 22 Dec 19:02:09 19:05:46 18° 269° (W) 19:09:23 437.490
CUTE 1.7 + AOD 2 22 Dec 19:05:33 19:07:49 14° 63° (ENE) 19:10:06 437.475
STRAND 1 22 Dec 19:20:51 19:25:59 89° 281° (W) 19:31:04 437.568
CUSAT 1 22 Dec 19:40:37 19:48:15 52° 74° (ENE) 19:56:31 437.405
SO-50 22 Dec 19:44:43 19:48:07 21° 111° (ESE) 19:51:37 436.795
AAUSAT CUBESAT 2 22 Dec 19:47:18 19:50:43 24° 67° (ENE) 19:54:09 437.432
ISS 22 Dec 19:48:23 19:51:25 36° 221° (SW) 19:54:26 145.825
Oscar 11 22 Dec 19:49:56 19:52:17 15° 62° (ENE) 19:54:39 145.826/435.025
CUBESAT XI-V 22 Dec 19:53:24 19:57:29 32° 291° (WNW) 20:01:34 437.345
PRISM 22 Dec 19:54:33 19:56:55 15° 297° (WNW) 19:59:15 437.425
UKube-1 22 Dec 20:00:04 20:02:25 15° 62° (ENE) 20:04:46 .
BEESAT 3 22 Dec 20:07:34 20:10:12 16° 39° (NE) 20:12:49 437.485
CANX-2 22 Dec 20:08:29 20:12:44 70° 75° (ENE) 20:17:02 2200.000
BRITE-PL 22 Dec 20:20:57 20:25:07 85° 257° (WSW) 20:29:18 437.365/2234.400
COMPASS 1 22 Dec 20:23:28 20:27:40 68° 75° (ENE) 20:31:54 437.405
HO-68 22 Dec 20:24:10 20:31:21 78° 255° (WSW) 20:38:35 435.675
CUBEBUG 2 22 Dec 20:25:27 20:28:35 21° 65° (ENE) 20:31:48 437.445
DELFI C3 22 Dec 20:26:13 20:29:40 26° 68° (ENE) 20:33:09 145.870
ZACube-1 22 Dec 20:26:19 20:28:51 16° 63° (ENE) 20:31:25 437.345
AIST 2 22 Dec 20:28:29 20:30:32 13° 36° (NE) 20:32:35 435.215
SEEDS 22 Dec 20:32:18 20:36:33 81° 257° (WSW) 20:40:51 437.485
GOMX 1 22 Dec 20:35:22 20:39:30 84° 257° (WSW) 20:43:44 467.674
VELOX 1 22 Dec 20:37:12 20:39:06 13° 61° (ENE) 20:41:01 145.980
CUTE 1.7 + AOD 2 22 Dec 20:39:03 20:43:15 59° 260° (W) 20:47:31 437.475
DANDE 22 Dec 20:43:49 20:51:40 77° 263° (W) 21:00:22 436.750
RS-15 22 Dec 20:48:02 20:59:20 83° 240° (WSW) 21:11:08 29.354- 29.394
BEESAT 2 22 Dec 20:49:01 20:52:45 30° 47° (NE) 20:56:26 435.950
DOVE 4 22 Dec 20:49:33 20:53:41 81° 258° (WSW) 20:57:57 437.250
FUNcube-1 22 Dec 20:51:04 20:54:38 27° 68° (ENE) 20:58:16 145.935
CINEMA 3 22 Dec 20:57:00 21:01:09 72° 75° (ENE) 21:05:27 145.822/145.860
PCSat 22 Dec 20:57:28 21:01:25 20° 42° (NE) 21:05:21 145.827
UWE-3 22 Dec 20:57:38 21:01:31 38° 70° (ENE) 21:05:31 435.000/436.395/437.385
STRAND 1 22 Dec 21:02:15 21:04:24 13° 302° (WNW) 21:06:33 437.568
DX 1 22 Dec 21:05:22 21:09:41 70° 74° (ENE) 21:14:01 434.975-435.025
HUMSAT D 22 Dec 21:07:30 21:10:51 24° 67° (ENE) 21:14:16 437.325/437.525
CUBEBUG 1 22 Dec 21:18:45 21:20:42 13° 61° (ENE) 21:22:39 437.445
AISAT 22 Dec 21:19:23 21:23:20 33° 69° (ENE) 21:27:19 437.250
AAUSAT CUBESAT 2 22 Dec 21:22:31 21:26:14 30° 264° (W) 21:30:00 437.432
Oscar 11 22 Dec 21:23:41 21:27:58 59° 259° (W) 21:32:17 145.826/435.025
SO-50 22 Dec 21:23:54 21:28:19 48° 310° (NW) 21:32:53 436.795
CUSAT 1 22 Dec 21:23:59 21:31:11 39° 270° (W) 21:38:51 437.405
UKube-1 22 Dec 21:33:49 21:38:05 59° 259° (WSW) 21:42:23 .
ANTELSAT 22 Dec 21:36:12 21:37:44 11° 88° (E) 21:39:16 437.575/2403.000
BEESAT 3 22 Dec 21:44:42 21:48:53 74° 239° (WSW) 21:52:59 437.485
CANX-2 22 Dec 21:48:09 21:49:09 11° 272° (W) 21:50:09 2200.000
50 SAT 22 Dec 22:00:38 22:04:39 75° 75° (ENE) 22:08:43 437.505
ZACube-1 22 Dec 22:00:43 22:04:48 51° 261° (W) 22:08:59 437.345
CUBEBUG 2 22 Dec 22:01:11 22:05:03 36° 263° (W) 22:09:03 437.445
DELFI C3 22 Dec 22:01:23 22:04:52 26° 265° (W) 22:08:23 145.870
COMPASS 1 22 Dec 22:02:47 22:03:51 11° 271° (W) 22:04:55 437.405
